Wind_Speed
26 17 17 16 17 17 13 9 6 7 7 11 10 8 11 10 13 9 12 15 15 19 19 19 15 14 13 12 7 3 2 3 5 6 8 6 6 7 10 11 13 15 17
29 16 14 14 16 17 13 11 7 10 9 13 10 11 10 15 17 13 9 13 18 17 16 21 17 11 6 5 3 1 4 6 10 7 7 5 8 10 12 13 15 18 19
28 19 17 16 18 17 15 13 12 11 10 13 15 16 15 17 21 19 16 14 16 15 16 16 14 13 9 5 4 6 6 5 10 11 12 13 11 12 14 15 18 22 20
26 18 18 17 21 18 17 13 18 15 14 16 19 19 20 22 19 23 18 15 18 19 22 17 11 14 12 11 9 7 5 7 7 13 14 12 13 14 14 16 17 18 23
21 19 16 20 23 19 19 15 22 20 16 14 24 24 22 17 18 21 18 15 12 9 15 12 15 13 12 11 6 4 3 6 8 8 10 11 13 13 14 16 19 24 27
24 19 16 21 23 20 20 19 20 23 18 12 14 27 25 21 19 17 17 16 17 14 15 17 18 12 12 9 5 2 5 6 7 9 11 12 12 14 17 20 23 27 30
28 25 16 22 25 22 21 19 23 25 19 13 13 29 27 25 22 20 22 20 18 19 14 11 13 13 11 9 7 7 9 9 10 9 11 12 15 20 22 26 27 29 25
27 23 21 21 27 24 22 19 22 28 23 16 13 16 26 27 22 19 18 20 22 18 22 18 17 17 15 14 12 10 11 10 13 14 16 17 22 23 25 26 24 23 19
29 25 24 25 30 27 23 20 21 27 24 19 15 14 17 23 24 20 21 18 22 20 20 23 23 20 12 10 12 13 12 12 14 16 19 21 25 25 24 24 21 19 19
32 30 24 25 32 29 23 21 20 28 26 23 19 17 17 19 18 21 20 20 16 17 16 12 11 10 11 11 14 14 13 16 18 20 21 23 27 27 23 20 17 18 21
39 36 31 28 34 29 24 24 22 29 30 28 22 19 21 21 22 20 18 16 14 12 15 15 12 12 11 14 17 18 18 19 24 26 26 28 27 21 18 17 19 22 25
46 42 39 34 36 32 24 26 24 22 34 31 26 23 22 22 23 23 21 20 19 17 18 18 17 17 16 15 16 18 20 23 27 28 26 20 16 16 17 20 24 26 27
47 46 46 39 39 35 28 27 27 26 28 35 32 27 24 25 26 23 23 25 26 23 22 21 20 16 18 20 22 23 25 27 28 22 15 12 14 16 20 24 25 27 30
45 47 48 45 43 38 32 29 29 28 26 26 34 34 31 29 31 30 31 27 27 27 25 23 22 23 23 23 24 26 28 28 20 16 13 15 17 20 24 24 25 28 32
47 41 48 46 47 40 34 34 32 29 28 27 27 31 36 33 32 32 33 32 32 32 29 28 27 27 28 30 31 29 28 20 17 15 17 20 22 24 23 25 26 29 34
47 46 43 50 49 44 35 33 34 33 29 29 29 28 28 29 35 35 35 33 33 35 34 35 31 31 32 33 31 28 21 19 20 21 23 24 24 24 24 27 29 34 36
46 51 43 51 53 44 39 35 34 36 32 28 26 31 31 29 26 34 37 38 39 36 37 38 39 39 35 29 27 22 21 23 24 26 25 25 24 23 24 28 33 34 38
52 56 47 48 53 47 42 38 37 37 34 32 28 28 30 31 27 22 29 35 39 36 34 35 33 31 28 25 24 24 24 27 28 27 26 25 25 28 31 35 37 40 41
55 60 53 52 50 51 44 39 41 38 37 36 31 28 29 31 29 26 23 22 21 26 30 31 31 27 24 24 25 27 29 29 29 27 27 29 30 34 36 38 45 44 47
63 57 56 55 52 51 45 43 43 42 41 40 36 31 31 30 30 31 27 23 21 22 23 26 25 25 27 29 30 30 29 29 28 29 30 30 35 36 39 45 49 48 50
70 59 57 54 55 56 50 45 49 48 47 46 40 35 32 32 32 31 29 30 29 28 29 29 29 31 33 34 32 30 29 30 30 30 32 36 37 40 43 46 48 50 51
76 66 65 63 53 55 58 55 46 48 49 46 42 38 36 34 34 33 32 31 32 32 32 34 36 37 36 34 32 31 30 31 35 36 38 38 39 42 46 46 50 51 52
84 84 77 68 67 60 58 59 52 47 47 48 47 46 43 38 35 34 32 31 31 31 32 32 31 30 32 31 30 32 34 37 37 38 37 41 46 48 49 50 53 54 55
86 78 73 66 66 64 60 63 55 55 53 51 53 53 49 43 41 39 37 36 35 33 32 31 32 32 31 33 33 36 36 37 40 40 45 49 50 53 55 56 57 57 56
83 78 72 74 66 65 65 71 61 58 59 52 50 50 52 49 49 48 44 39 38 38 37 38 38 39 40 39 39 41 40 40 42 48 49 51 56 56 58 59 59 60 60
78 76 65 69 75 64 67 70 66 61 61 60 56 54 51 49 52 53 47 45 45 43 42 39 38 42 43 45 47 46 45 46 48 53 53 57 57 57 60 60 61 61 62
Wind_Direction
249 243 254 255 256 256 253 247 220 212 228 194 171 171 158 165 135 134 139 156 139 150 149 145 134 134 140 161 162 131 134 170 195 187 171 179 200 227 253 262 274 281 281
248 238 250 256 256 251 237 226 212 193 210 181 188 195 180 155 135 139 129 137 162 162 149 155 162 165 174 141 112 247 212 186 209 215 192 226 258 269 275 279 286 285 283
235 228 244 247 254 244 230 214 186 176 200 207 200 210 194 185 155 145 143 158 165 177 169 181 183 178 170 238 248 245 235 220 227 231 248 274 275 282 289 292 294 287 281
232 227 248 245 250 239 224 205 184 180 191 199 214 213 213 202 182 169 173 168 165 185 185 179 198 213 232 253 271 255 250 261 248 250 263 275 282 284 280 284 282 291 293
214 235 245 242 244 234 213 197 190 191 203 206 213 214 201 191 196 192 187 191 184 223 217 231 227 234 251 244 236 230 230 234 238 256 262 267 270 271 271 289 303 301 300
219 234 229 239 238 233 213 200 193 197 196 216 201 204 205 193 187 193 191 202 208 202 193 192 220 208 214 235 229 235 249 251 254 241 238 248 268 296 302 302 303 309 309
232 238 238 236 237 230 218 202 202 197 182 208 198 206 214 206 198 199 208 214 210 211 206 203 198 210 236 257 253 223 230 231 237 251 271 294 306 305 304 310 311 307 305
234 233 239 246 237 231 215 203 204 199 195 198 200 205 217 223 220 216 210 211 216 212 216 223 228 239 255 264 248 247 238 250 262 275 286 300 310 307 305 305 306 300 302
237 236 242 245 234 231 217 207 212 198 199 196 187 193 203 208 221 222 223 215 209 213 224 236 247 254 237 236 246 242 243 267 279 291 297 295 301 303 302 301 298 298 303
238 235 239 235 229 229 218 211 214 195 198 202 196 196 181 169 172 190 194 195 188 192 211 253 257 265 234 245 256 267 276 281 290 296 302 303 303 302 296 296 298 303 309
238 237 241 232 226 222 216 215 218 200 200 204 203 201 206 192 181 180 190 193 185 239 214 229 245 255 259 272 285 290 286 283 297 298 299 300 297 290 289 293 302 310 318
240 240 239 232 222 219 215 218 219 205 203 201 207 213 224 218 199 196 200 198 205 213 239 236 250 267 276 282 291 297 295 296 298 298 296 289 281 278 291 302 313 315 321
239 242 237 231 218 220 216 219 216 218 208 211 207 214 220 230 237 242 227 225 224 232 249 250 256 265 281 281 284 288 298 299 295 293 287 282 281 291 302 306 310 319 321
237 235 231 226 217 215 218 220 216 221 215 216 218 214 214 217 231 240 235 244 242 237 246 252 260 260 267 276 283 289 292 290 281 279 276 283 290 296 298 307 318 320 318
231 225 221 222 216 213 217 222 223 220 218 219 217 221 221 221 230 235 239 243 249 251 251 253 266 269 277 278 284 287 285 267 271 275 277 286 292 296 301 311 315 312 310
225 215 217 218 217 215 212 221 229 224 218 217 220 220 222 223 227 238 244 246 247 250 252 258 263 266 277 280 280 279 257 262 270 278 285 291 294 298 312 312 311 311 310
217 211 212 215 214 216 215 220 227 228 219 218 226 224 224 225 223 229 235 242 246 250 253 258 261 267 270 271 270 256 258 268 277 283 287 289 294 306 308 309 308 312 315
212 210 211 212 215 210 220 218 228 229 226 221 223 229 226 224 223 222 228 236 242 247 248 255 257 262 263 263 258 257 266 273 280 285 286 290 295 301 299 304 312 313 316
212 211 210 213 212 211 218 226 223 231 232 225 224 228 230 226 224 223 222 232 236 240 246 249 255 255 254 258 260 267 274 278 282 277 285 291 301 303 303 308 314 310 316
210 205 212 212 212 217 214 227 224 227 232 227 227 225 230 233 230 231 230 231 234 238 242 244 245 248 254 260 267 273 283 279 278 285 292 301 303 302 304 306 308 311 312
211 216 213 212 214 218 221 223 227 223 228 229 228 225 226 230 235 236 237 237 240 241 243 246 248 251 256 262 270 276 277 277 282 287 294 298 304 305 307 307 311 310 312
217 211 221 223 224 222 224 226 228 231 231 233 233 231 226 230 233 239 240 243 244 247 250 249 252 256 261 266 270 271 273 278 282 286 292 297 300 300 309 315 318 314 312
221 221 226 228 231 226 226 226 225 229 231 232 233 231 229 229 230 234 236 241 247 249 253 255 259 265 268 265 267 270 273 280 285 288 290 293 298 303 308 310 316 313 311
221 224 223 218 226 226 228 225 226 223 228 231 231 231 232 230 234 236 237 237 238 243 251 256 255 261 263 262 264 271 276 283 280 282 292 298 300 306 307 309 310 312 311
220 222 222 220 219 220 227 227 226 224 225 230 233 238 239 236 236 238 241 248 251 249 250 252 254 259 265 267 272 274 277 283 285 289 292 295 302 303 304 308 309 310 310
218 220 222 224 223 218 220 226 229 227 225 228 233 237 232 237 240 240 244 252 250 257 260 266 264 265 268 269 273 276 282 287 287 289 293 297 297 297 302 306 307 308 310
Height
10828 10830 10831 10831 10832 10833 10832 10832 10833 10836 10838 10840 10841 10841 10842 10844 10844 10844 10847 10848 10850 10852 10854 10857 10858 10859 10862 10864 10865 10866 10869 10870 10872 10873 10875 10876 10877 10878 10879 10880 10880 10880 10881
10825 10826 10829 10829 10830 10831 10830 10830 10833 10835 10837 10839 10840 10841 10842 10845 10846 10847 10847 10849 10850 10852 10855 10856 10857 10859 10861 10862 10864 10867 10869 10870 10871 10872 10874 10875 10876 10877 10878 10878 10878 10878 10877
10820 10823 10826 10827 10827 10828 10828 10830 10832 10834 10836 10838 10840 10840 10841 10844 10844 10847 10848 10850 10851 10852 10854 10856 10858 10860 10862 10863 10864 10865 10867 10869 10869 10871 10873 10875 10875 10876 10876 10875 10875 10875 10875
10816 10820 10822 10823 10825 10826 10826 10828 10831 10832 10835 10836 10837 10838 10840 10842 10842 10844 10846 10849 10852 10852 10854 10856 10858 10859 10861 10862 10863 10864 10865 10867 10868 10871 10872 10873 10874 10874 10874 10874 10874 10874 10873
10812 10815 10818 10820 10823 10824 10825 10826 10829 10831 10832 10832 10833 10836 10839 10839 10841 10843 10846 10848 10849 10851 10853 10855 10857 10859 10860 10861 10863 10863 10864 10866 10868 10870 10871 10871 10871 10872 10873 10872 10872 10871 10869
10808 10811 10814 10818 10821 10822 10822 10823 10826 10828 10828 10828 10830 10834 10837 10840 10841 10843 10845 10846 10849 10852 10854 10856 10858 10859 10860 10861 10862 10863 10865 10866 10867 10868 10869 10870 10870 10870 10869 10869 10869 10868 10866
10804 10807 10810 10815 10818 10820 10819 10820 10824 10825 10825 10826 10828 10832 10836 10838 10841 10843 10844 10845 10848 10851 10854 10855 10856 10858 10860 10861 10862 10863 10865 10865 10866 10867 10867 10867 10867 10867 10867 10866 10865 10863 10861
10797 10802 10806 10810 10814 10817 10817 10817 10820 10822 10824 10824 10826 10829 10833 10836 10838 10842 10841 10843 10846 10851 10854 10854 10855 10857 10858 10859 10860 10861 10862 10863 10864 10864 10865 10865 10864 10865 10864 10863 10861 10859 10857
10792 10796 10800 10805 10809 10813 10813 10814 10816 10817 10820 10822 10823 10826 10828 10832 10836 10838 10837 10842 10845 10850 10851 10852 10853 10854 10856 10857 10858 10859 10860 10861 10862 10863 10863 10862 10863 10862 10861 10859 10858 10856 10855
10786 10790 10794 10799 10804 10808 10809 10811 10813 10814 10817 10819 10821 10824 10827 10830 10832 10833 10836 10840 10844 10848 10848 10850 10850 10852 10855 10856 10857 10857 10858 10859 10860 10859 10859 10859 10858 10857 10856 10856 10856 10855 10853
10779 10784 10788 10793 10799 10802 10805 10808 10811 10812 10814 10816 10818 10822 10826 10828 10828 10830 10835 10838 10841 10844 10844 10847 10848 10849 10852 10854 10855 10856 10855 10856 10855 10855 10855 10854 10853 10853 10854 10853 10853 10851 10849
10772 10777 10783 10788 10793 10796 10800 10804 10807 10808 10810 10813 10816 10819 10822 10826 10825 10828 10830 10833 10836 10837 10839 10843 10845 10847 10848 10851 10852 10852 10852 10851 10850 10850 10850 10850 10850 10851 10850 10850 10850 10848 10846
10765 10770 10776 10782 10786 10791 10794 10799 10802 10804 10806 10808 10812 10815 10819 10822 10821 10824 10826 10829 10833 10834 10835 10838 10841 10844 10845 10846 10847 10847 10846 10846 10846 10846 10847 10847 10847 10847 10848 10847 10845 10843 10842
10757 10761 10767 10774 10780 10784 10788 10793 10797 10799 10801 10804 10807 10811 10815 10818 10818 10820 10823 10826 10829 10830 10831 10834 10838 10840 10842 10842 10843 10842 10842 10841 10841 10842 10842 10844 10844 10844 10843 10842 10840 10839 10836
10748 10752 10759 10766 10773 10777 10782 10787 10792 10795 10796 10799 10801 10804 10809 10813 10813 10814 10818 10820 10824 10826 10828 10831 10833 10834 10836 10837 10838 10838 10838 10837 10838 10838 10838 10838 10839 10838 10837 10836 10835 10833 10831
10739 10745 10751 10758 10764 10769 10774 10781 10786 10789 10791 10794 10797 10799 10803 10807 10809 10809 10812 10816 10819 10822 10824 10825 10828 10830 10831 10833 10833 10834 10834 10834 10834 10834 10834 10834 10834 10833 10832 10831 10830 10829 10827
10730 10737 10741 10748 10754 10761 10767 10774 10779 10782 10786 10789 10791 10794 10797 10802 10804 10805 10807 10810 10813 10817 10819 10821 10822 10824 10825 10827 10827 10828 10828 10828 10829 10829 10829 10829 10828 10828 10828 10827 10826 10824 10821
10721 10726 10733 10739 10745 10751 10758 10765 10771 10776 10780 10783 10785 10788 10791 10795 10798 10800 10802 10805 10808 10810 10814 10815 10816 10817 10819 10819 10821 10823 10824 10825 10825 10824 10824 10824 10824 10824 10823 10822 10821 10818 10815
10711 10720 10724 10731 10736 10742 10749 10756 10763 10768 10772 10777 10779 10782 10785 10789 10792 10795 10797 10798 10800 10803 10805 10808 10810 10812 10813 10814 10816 10818 10819 10819 10819 10819 10819 10820 10819 10818 10817 10816 10814 10811 10808
10701 10709 10716 10722 10728 10734 10739 10748 10755 10760 10764 10768 10772 10775 10779 10783 10786 10788 10792 10794 10795 10797 10799 10801 10803 10805 10807 10809 10811 10812 10813 10813 10813 10813 10813 10813 10813 10812 10811 10809 10807 10804 10800
10693 10701 10706 10712 10718 10724 10731 10736 10743 10748 10753 10758 10764 10768 10772 10775 10778 10780 10785 10787 10790 10792 10794 10796 10798 10799 10801 10803 10805 10806 10807 10807 10807 10806 10806 10807 10806 10805 10804 10802 10799 10795 10791
10677 10689 10694 10700 10708 10715 10722 10729 10735 10742 10747 10753 10759 10762 10765 10767 10770 10773 10777 10780 10783 10785 10787 10789 10791 10792 10794 10796 10798 10799 10800 10800 10800 10799 10799 10798 10797 10796 10795 10793 10789 10785 10781
10663 10673 10679 10687 10695 10704 10712 10721 10728 10734 10742 10747 10749 10752 10756 10760 10764 10767 10770 10773 10775 10778 10780 10782 10784 10785 10786 10788 10791 10792 10793 10792 10792 10791 10790 10789 10787 10786 10785 10784 10780 10775 10771
10647 10656 10665 10674 10682 10694 10702 10711 10718 10722 10728 10732 10737 10742 10748 10755 10758 10760 10762 10764 10767 10769 10771 10774 10776 10777 10779 10780 10782 10783 10784 10784 10784 10783 10782 10779 10778 10776 10774 10773 10770 10765 10761
10627 10642 10649 10660 10668 10681 10690 10700 10709 10713 10718 10724 10730 10735 10741 10746 10749 10752 10755 10758 10761 10762 10765 10767 10769 10769 10770 10772 10773 10773 10774 10775 10775 10773 10772 10770 10769 10766 10762 10761 10758 10754 10750
10611 10628 10643 10652 10658 10670 10679 10689 10697 10704 10709 10715 10719 10725 10730 10735 10738 10742 10746 10750 10753 10756 10758 10761 10762 10762 10763 10764 10764 10764 10765 10764 10764 10762 10761 10759 10757 10754 10751 10748 10746 10743 10739